[[{"header":{"parameterUnit":"m.s-1","parameterCategory":2,"la1":30.2991,"la2":30.254,"lo1":-89.0895,"lo2":-89.0444,"dy":0.0017,"dx":0.0017,"nx":28,"ny":28,"refTime":"2023-08-03T21:00:00:Z","depth":"0","parameterNumber":2,"parameterNumberName":"U-component_of_CURRENTS"},"data":[0,0,0,0,0,0,0,0,0,0,0,0,0,0,0,0,0,0,0,0,0,0,0,0,0,0,0,0,0,0,0,0,0,0,0,0,0,0,0,0,0,0,0,0,0,0,0,0,0,0,0,0,0,0,0,0,0,0,-0.2291,-0.2292,0,-0.2349,-0.235,-0.235,-0.233,-0.2328,-0.2327,-0.2326,-0.2322,-0.2323,-0.2324,0,0,0,0,0,0,0,0,0,0,0,0,0,-0.2195,-0.2196,-0.2291,-0.2292,-0.2293,-0.2349,-0.235,-0.2351,-0.233,-0.2328,-0.2327,-0.2326,-0.2322,-0.2323,-0.2324,0,0,0,0,0,0,0,0,0,0,0,0,0,-0.2241,-0.2197,-0.2291,-0.2291,-0.2291,-0.2349,-0.235,-0.2351,-0.233,-0.2328,-0.2327,-0.2325,-0.2321,-0.2323,-0.2324,-0.2367,0,0,-0.2329,-0.2329,0,0,0,0,0,0,0,0,-0.2239,-0.2245,-0.229,-0.2291,-0.2292,-0.2332,-0.2315,-0.2354,-0.233,-0.2313,-0.2326,-0.2324,-0.2322,-0.2324,-0.2336,-0.2367,-0.2367,-0.2329,-0.233,-0.233,-0.2331,0,0,0,0,0,0,0,-0.2236,-0.2242,-0.2312,-0.2291,-0.2292,-0.2299,-0.2303,-0.2322,-0.2324,-0.2315,-0.2314,-0.2324,-0.2322,-0.2335,-0.2336,-0.2367,-0.2329,-0.233,-0.2331,-0.2331,-0.2428,-0.243,0,0,0,0,0,0,-0.2233,-0.2239,-0.231,-0.2314,-0.2263,-0.2302,-0.2307,-0.2319,-0.2325,-0.2325,-0.2325,-0.2323,-0.2334,-0.2334,-0.2336,-0.2369,-0.233,-0.2332,-0.2332,-0.2426,-0.2428,-0.243,0,0,0,0,0,0,-0.2231,-0.2239,-0.2308,-0.2279,-0.2289,-0.2306,-0.232,-0.2321,-0.233,-0.2334,-0.2332,-0.2332,-0.2332,-0.2334,-0.2352,-0.2369,-0.2332,-0.2333,-0.2424,-0.2427,-0.2429,-0.2447,0,0,0,0,0,0,-0.2228,-0.2238,-0.2244,-0.2279,-0.229,-0.2336,-0.2322,-0.2324,-0.234,-0.2337,-0.234,-0.2338,-0.2331,-0.235,-0.2353,-0.237,-0.2335,-0.2422,-0.2425,-0.2428,-0.2444,-0.245,-0.2454,0,0,0,0,0,-0.2224,-0.2234,-0.2244,-0.2252,-0.2299,-0.2337,-0.2344,-0.2348,-0.2342,-0.235,-0.2354,-0.2338,-0.2373,-0.2353,-0.2356,-0.2374,-0.2421,-0.2424,-0.2428,-0.2442,-0.2449,-0.2454,0,0,0,0,0,0,-0.2188,-0.2235,-0.2245,-0.2267,-0.2299,-0.2334,-0.2341,-0.2355,-0.2367,-0.2361,-0.2358,-0.2358,-0.2384,-0.2384,-0.2362,-0.2415,-0.2396,-0.24,-0.2405,-0.2411,-0.2416,-0.2411,-0.2336,0,0,0,0,0,-0.2188,-0.2209,-0.2254,-0.2271,-0.2286,-0.2318,-0.2334,-0.2346,-0.2365,-0.2368,-0.2372,-0.2384,-0.2408,-0.241,-0.2429,-0.2455,-0.2458,-0.2472,-0.2477,-0.2481,-0.2483,-0.252,-0.2528,-0.2443,-0.2443,-0.2443,0,0,-0.2177,-0.2207,-0.2217,-0.2265,-0.2287,-0.2318,-0.2322,-0.235,-0.2372,-0.2368,-0.2387,-0.2405,-0.2423,-0.2451,-0.2463,-0.2447,-0.2505,-0.2486,-0.2489,-0.2489,-0.2524,-0.2532,-0.2539,-0.2445,-0.2445,-0.2445,0,0,-0.2171,-0.2194,-0.2212,-0.2246,-0.2291,-0.2315,-0.2325,-0.2366,-0.2375,-0.2411,-0.2417,-0.2446,-0.2471,-0.249,-0.2503,-0.2554,-0.2538,-0.256,-0.2571,-0.2607,-0.2614,-0.262,-0.2617,-0.2623,-0.2554,-0.2554,-0.2554,0,-0.2158,-0.219,-0.2222,-0.2254,-0.2279,-0.2314,-0.2341,-0.2367,-0.2408,-0.2425,-0.2414,-0.2484,-0.2493,-0.2543,-0.2555,-0.2564,-0.2567,-0.254,-0.2612,-0.2618,-0.2624,-0.262,-0.2626,-0.2555,-0.2555,-0.2555,-0.2555,0,-0.2172,-0.2201,-0.2213,-0.2265,-0.2295,-0.2326,-0.2371,-0.2396,-0.2414,-0.2445,-0.2497,-0.2522,-0.256,-0.2575,-0.2575,-0.2629,-0.2611,-0.2618,-0.2589,-0.2633,-0.2626,-0.2632,-0.2557,-0.2557,-0.2556,-0.2556,0,0,-0.2142,-0.221,-0.2216,-0.2241,-0.2307,-0.2332,-0.2373,-0.2424,-0.2456,-0.2493,-0.2535,-0.2584,-0.2601,-0.262,-0.2635,-0.2661,-0.2697,-0.265,-0.2651,-0.2634,-0.2748,-0.2693,-0.2694,-0.2714,-0.2715,-0.2717,-0.272,0,-0.2146,-0.2193,-0.2232,-0.2276,-0.2304,-0.2354,-0.239,-0.2442,-0.2483,-0.253,-0.2573,-0.2619,-0.2618,-0.264,-0.267,-0.2697,-0.2717,-0.2694,-0.272,-0.272,-0.2656,-0.2701,-0.2673,-0.267,-0.2725,-0.2726,-0.2727,0,-0.2154,-0.2185,-0.2223,-0.2287,-0.2303,-0.2332,-0.2398,-0.2439,-0.2517,-0.2551,-0.2608,-0.2645,-0.2696,-0.269,-0.2747,-0.273,-0.274,-0.2754,-0.2755,-0.2702,-0.2677,-0.2641,-0.2679,-0.2593,-0.2736,-0.2735,-0.2734,0,-0.2119,-0.2183,-0.2206,-0.2231,-0.2305,-0.2326,-0.2361,-0.2439,-0.2484,-0.2564,-0.2609,-0.2673,-0.2705,-0.2742,-0.2759,-0.2761,-0.2807,-0.2815,-0.2775,-0.2769,-0.275,-0.274,-0.2698,-0.2862,-0.2862,-0.2862,-0.2862,0,-0.2119,-0.214,-0.2187,-0.2205,-0.2235,-0.2295,-0.2343,-0.2392,-0.2479,-0.2549,-0.261,-0.2671,-0.2722,-0.2756,-0.277,-0.2775,-0.2815,-0.2782,-0.2777,-0.2753,-0.2744,-0.2671,-0.2598,-0.2862,-0.2862,-0.2862,-0.2862,0,-0.2088,-0.2121,-0.215,-0.2206,-0.222,-0.2238,-0.232,-0.2371,-0.2447,-0.2541,-0.257,-0.2666,-0.2706,-0.2734,-0.2783,-0.2779,-0.273,-0.2787,-0.2729,-0.2718,-0.26,-0.2529,-0.2488,-0.2413,-0.2755,-0.2753,-0.2752,0,-0.2082,-0.2089,-0.2129,-0.2143,-0.2166,-0.2205,-0.2248,-0.2337,-0.2407,-0.2545,-0.2595,-0.2657,-0.2721,-0.2739,-0.2749,-0.2752,-0.2669,-0.2695,-0.2704,-0.2588,-0.2507,-0.2489,-0.2428,-0.2681,-0.268,-0.2678,-0.2677,0,-0.2061,-0.2064,-0.2082,-0.2102,-0.2134,-0.2183,-0.2251,-0.2305,-0.2435,-0.2525,-0.264,-0.2698,-0.2736,-0.2755,-0.2728,-0.2699,-0.2588,-0.2669,-0.2588,-0.2472,-0.2414,-0.2341,-0.2652,-0.2666,-0.2668,-0.2668,-0.2669,-0.2669,-0.2031,-0.2026,-0.2037,-0.2051,-0.2097,-0.2155,-0.2174,-0.2296,-0.2397,-0.2555,-0.2637,-0.2736,-0.2774,-0.2755,-0.2692,-0.2536,-0.2525,-0.247,-0.24,-0.2401,-0.2306,-0.2562,-0.2546,-0.2546,-0.2547,-0.2547,-0.2547,0,-0.1993,-0.1983,-0.1993,-0.2008,-0.2037,-0.2078,-0.2173,-0.2201,-0.2311,-0.2521,-0.2636,-0.276,-0.2729,-0.2676,-0.254,-0.2345,-0.2296,-0.2186,-0.2165,-0.212,-0.2395,-0.2368,-0.2264,-0.2264,-0.2264,-0.2264,-0.2264,-0.2264,-0.1969,-0.1945,-0.1937,-0.1935,-0.1954,-0.1959,-0.1993,-0.2079,-0.2202,-0.2397,-0.2551,-0.2657,-0.2479,-0.2499,-0.2229,-0.2092,-0.1938,-0.1878,-0.1803,-0.1994,-0.2016,-0.2038,-0.1999,-0.1819,-0.1818,-0.1572,-0.1569,-0.1567]},{"header":{"parameterUnit":"m.s-1","parameterCategory":2,"la1":30.2991,"la2":30.254,"lo1":-89.0895,"lo2":-89.0444,"dy":0.0017,"dx":0.0017,"nx":28,"ny":28,"refTime":"2023-08-03T21:00:00:Z","depth":"0","parameterNumber":3,"parameterNumberName":"V-component_of_CURRENTS"},"data":[0,0,0,0,0,0,0,0,0,0,0,0,0,0,0,0,0,0,0,0,0,0,0,0,0,0,0,0,0,0,0,0,0,0,0,0,0,0,0,0,0,0,0,0,0,0,0,0,0,0,0,0,0,0,0,0,0,0,-0.1488,-0.1488,0,-0.1448,-0.1448,-0.1447,-0.1372,-0.1371,-0.137,-0.1369,-0.1109,-0.1103,-0.1097,0,0,0,0,0,0,0,0,0,0,0,0,0,-0.1456,-0.1457,-0.1488,-0.1488,-0.1488,-0.1449,-0.1448,-0.1447,-0.1372,-0.1371,-0.137,-0.1368,-0.1111,-0.1104,-0.1096,0,0,0,0,0,0,0,0,0,0,0,0,0,-0.1445,-0.1458,-0.1488,-0.145,-0.1446,-0.1449,-0.1448,-0.1446,-0.1372,-0.1371,-0.1369,-0.1368,-0.1113,-0.1104,-0.1095,-0.1071,0,0,-0.1068,-0.1064,0,0,0,0,0,0,0,0,-0.1445,-0.1445,-0.1455,-0.1452,-0.1448,-0.1418,-0.1341,-0.1311,-0.1373,-0.1395,-0.1369,-0.1367,-0.1196,-0.118,-0.1172,-0.1059,-0.1047,-0.1067,-0.1062,-0.1058,-0.1055,0,0,0,0,0,0,0,-0.1446,-0.1446,-0.1468,-0.1456,-0.1451,-0.142,-0.1416,-0.1336,-0.1297,-0.1393,-0.1389,-0.1392,-0.1191,-0.1181,-0.1165,-0.1044,-0.1067,-0.106,-0.1054,-0.105,-0.0889,-0.089,0,0,0,0,0,0,-0.1465,-0.1448,-0.1469,-0.1467,-0.1448,-0.1422,-0.1418,-0.1425,-0.1302,-0.1285,-0.1394,-0.1389,-0.1197,-0.1176,-0.1155,-0.1089,-0.1058,-0.105,-0.1044,-0.0888,-0.089,-0.0891,0,0,0,0,0,0,-0.1465,-0.1467,-0.1471,-0.1459,-0.1458,-0.1425,-0.1433,-0.1425,-0.1404,-0.1306,-0.1283,-0.138,-0.1195,-0.1168,-0.1086,-0.1079,-0.1046,-0.1037,-0.0887,-0.0889,-0.089,-0.0975,0,0,0,0,0,0,-0.1464,-0.1468,-0.1472,-0.1461,-0.146,-0.1464,-0.1435,-0.1426,-0.1412,-0.1405,-0.1287,-0.1263,-0.1192,-0.11,-0.1077,-0.1066,-0.103,-0.0886,-0.0888,-0.089,-0.0971,-0.0979,-0.0987,0,0,0,0,0,-0.1463,-0.1468,-0.1473,-0.1475,-0.147,-0.1464,-0.146,-0.1428,-0.1413,-0.1403,-0.1334,-0.1266,-0.1097,-0.1093,-0.1066,-0.1053,-0.0885,-0.0887,-0.089,-0.0967,-0.0978,-0.0986,0,0,0,0,0,0,-0.1447,-0.1462,-0.1466,-0.1473,-0.1471,-0.1453,-0.1443,-0.1432,-0.1375,-0.1359,-0.1267,-0.1238,-0.117,-0.1107,-0.1106,-0.1019,-0.0984,-0.0981,-0.1053,-0.1061,-0.1069,-0.1071,-0.1023,0,0,0,0,0,-0.1455,-0.1465,-0.1472,-0.1477,-0.148,-0.1466,-0.1459,-0.1443,-0.1402,-0.1376,-0.1308,-0.1232,-0.1164,-0.1109,-0.1044,-0.0982,-0.0912,-0.0963,-0.0971,-0.0978,-0.0965,-0.087,-0.0867,-0.0899,-0.0899,-0.0899,0,0,-0.1451,-0.1461,-0.1465,-0.1476,-0.147,-0.1471,-0.1455,-0.1447,-0.1438,-0.1352,-0.1308,-0.1253,-0.1158,-0.1101,-0.1064,-0.1039,-0.0937,-0.0981,-0.0987,-0.097,-0.0872,-0.0868,-0.0865,-0.0901,-0.09,-0.09,0,0,-0.1447,-0.1459,-0.1466,-0.1469,-0.1473,-0.1469,-0.147,-0.146,-0.1442,-0.1405,-0.1351,-0.1296,-0.1191,-0.1132,-0.1084,-0.1094,-0.0991,-0.1079,-0.1099,-0.1008,-0.1003,-0.0998,-0.0925,-0.0913,-0.1072,-0.1072,-0.1072,0,-0.144,-0.1456,-0.1464,-0.147,-0.1471,-0.1471,-0.1472,-0.1461,-0.1426,-0.1408,-0.1394,-0.1273,-0.1204,-0.1122,-0.1139,-0.1107,-0.1043,-0.1068,-0.1015,-0.1009,-0.1002,-0.0928,-0.0913,-0.1077,-0.1076,-0.1076,-0.1075,0,-0.1445,-0.1454,-0.1456,-0.147,-0.1469,-0.1472,-0.1471,-0.1465,-0.1454,-0.1438,-0.1377,-0.1303,-0.1223,-0.1211,-0.1171,-0.1103,-0.107,-0.1044,-0.0987,-0.1004,-0.0925,-0.0908,-0.1083,-0.1081,-0.108,-0.1079,0,0,-0.1442,-0.1458,-0.1459,-0.1464,-0.1471,-0.1472,-0.1467,-0.1459,-0.1445,-0.1416,-0.1374,-0.1305,-0.1276,-0.1223,-0.1173,-0.1106,-0.1029,-0.1063,-0.1056,-0.0983,-0.0829,-0.0832,-0.0814,-0.0985,-0.0983,-0.0981,-0.0798,0,-0.1444,-0.1461,-0.1462,-0.1467,-0.1476,-0.1473,-0.1467,-0.1456,-0.1438,-0.1401,-0.134,-0.1276,-0.1275,-0.1229,-0.117,-0.1048,-0.0985,-0.1081,-0.0828,-0.0821,-0.0815,-0.0795,-0.0789,-0.0628,-0.0781,-0.0778,-0.0776,0,-0.1453,-0.1464,-0.1476,-0.1474,-0.1475,-0.1473,-0.1463,-0.1454,-0.1411,-0.1388,-0.1332,-0.1277,-0.1178,-0.1176,-0.0983,-0.1039,-0.0949,-0.0868,-0.0858,-0.0813,-0.0792,-0.0632,-0.0591,-0.037,-0.075,-0.0752,-0.0754,0,-0.1465,-0.147,-0.1482,-0.1485,-0.1484,-0.1479,-0.1473,-0.1451,-0.1435,-0.1368,-0.1325,-0.1223,-0.1125,-0.1015,-0.0878,-0.0909,-0.0658,-0.067,-0.0593,-0.0592,-0.0512,-0.051,-0.0217,-0.0539,-0.0539,-0.054,-0.054,0,-0.1478,-0.1482,-0.1489,-0.1498,-0.15,-0.1488,-0.1477,-0.1462,-0.1415,-0.1374,-0.1311,-0.1227,-0.1074,-0.0929,-0.084,-0.0656,-0.0618,-0.058,-0.0536,-0.0548,-0.055,-0.0295,-0.0179,-0.0533,-0.0534,-0.0536,-0.0537,0,-0.149,-0.1499,-0.1511,-0.1512,-0.1511,-0.1512,-0.1492,-0.1485,-0.1427,-0.136,-0.1326,-0.1179,-0.0989,-0.0855,-0.063,-0.0574,-0.0297,-0.0374,-0.0414,-0.0379,-0.0146,-0.0037,0.0266,0.0369,-0.0256,-0.0255,-0.0254,0,-0.1495,-0.1509,-0.1527,-0.154,-0.154,-0.1538,-0.1544,-0.1506,-0.1488,-0.1328,-0.1289,-0.1082,-0.0975,-0.0665,-0.0513,-0.0345,-0.0188,-0.0219,-0.0295,-0.0108,0.0049,0.0077,0.0144,-0.022,-0.0219,-0.0218,-0.0217,0,-0.1501,-0.1515,-0.1526,-0.1565,-0.1578,-0.1589,-0.1579,-0.1567,-0.1495,-0.1429,-0.1285,-0.1177,-0.0876,-0.0683,-0.0452,-0.0332,-0.0058,-0.0197,0.0041,0.0142,0.0157,0.0268,-0.0375,-0.0208,-0.0209,-0.021,-0.021,-0.0211,-0.1498,-0.1513,-0.1545,-0.1577,-0.1607,-0.1636,-0.1649,-0.1631,-0.1602,-0.1531,-0.1366,-0.1254,-0.086,-0.0553,-0.0378,0.0046,0.0021,0.0157,0.0286,0.0304,0.0377,-0.0271,-0.0093,-0.0093,-0.0093,-0.0094,-0.0094,0,-0.1486,-0.1515,-0.1554,-0.1605,-0.1658,-0.1661,-0.1675,-0.1695,-0.1686,-0.1644,-0.1563,-0.1179,-0.0816,-0.0388,0.0211,0.0488,0.0532,0.0687,0.0775,0.0827,0.031,0.0282,0.0498,0.0497,0.0497,0.0497,0.0497,0.0496,-0.1479,-0.1516,-0.1548,-0.164,-0.1682,-0.1749,-0.1765,-0.1793,-0.1792,-0.1691,-0.1532,-0.1337,-0.0435,0.0455,0.1069,0.1108,0.1354,0.1326,0.1485,0.1179,0.1139,0.1101,0.1104,0.1489,0.149,0.1918,0.1923,0.1927]}],[{"header":{"parameterUnit":"m.s-1","parameterCategory":2,"la1":30.2991,"la2":30.254,"lo1":-89.0895,"lo2":-89.0444,"dy":0.0017,"dx":0.0017,"nx":28,"ny":28,"refTime":"2023-08-03T21:00:00:Z","depth":"2","parameterNumber":2,"parameterNumberName":"U-component_of_CURRENTS"},"data":[0,0,0,0,0,0,0,0,0,0,0,0,0,0,0,0,0,0,0,0,0,0,0,0,0,0,0,0,0,0,0,0,0,0,0,0,0,0,0,0,0,0,0,0,0,0,0,0,0,0,0,0,0,0,0,0,0,0,-0.2446,-0.2449,0,-0.2669,-0.2671,-0.2673,-0.275,-0.275,-0.2749,-0.2749,-0.2771,-0.2771,-0.2772,0,0,0,0,0,0,0,0,0,0,0,0,0,-0.2168,-0.2171,-0.2446,-0.2449,-0.2453,-0.2668,-0.2671,-0.2673,-0.275,-0.275,-0.2749,-0.2749,-0.277,-0.2771,-0.2772,0,0,0,0,0,0,0,0,0,0,0,0,0,-0.2324,-0.2172,-0.2445,-0.252,-0.253,-0.2668,-0.2671,-0.2674,-0.275,-0.275,-0.2749,-0.2748,-0.277,-0.2771,-0.2773,-0.2793,0,0,-0.2777,-0.2778,0,0,0,0,0,0,0,0,-0.2315,-0.2333,-0.2506,-0.2516,-0.2526,-0.2685,-0.2581,-0.2706,-0.275,-0.2661,-0.2749,-0.2748,-0.2727,-0.2732,-0.2771,-0.2794,-0.2795,-0.2777,-0.2778,-0.2779,-0.2779,0,0,0,0,0,0,0,-0.2304,-0.2325,-0.2529,-0.251,-0.2522,-0.2571,-0.2591,-0.2606,-0.2687,-0.2669,-0.2676,-0.2709,-0.273,-0.277,-0.2771,-0.2795,-0.2777,-0.2778,-0.2779,-0.278,-0.2778,-0.2777,0,0,0,0,0,0,-0.2284,-0.2314,-0.2522,-0.2536,-0.2423,-0.2576,-0.2599,-0.2631,-0.2692,-0.2704,-0.271,-0.2712,-0.2767,-0.277,-0.2772,-0.2765,-0.2779,-0.278,-0.2781,-0.2778,-0.2777,-0.2776,0,0,0,0,0,0,-0.2277,-0.23,-0.2513,-0.2434,-0.2465,-0.2582,-0.2617,-0.2636,-0.2702,-0.2726,-0.2732,-0.276,-0.2767,-0.277,-0.2784,-0.2767,-0.2781,-0.2782,-0.278,-0.2778,-0.2777,-0.2772,0,0,0,0,0,0,-0.2268,-0.2296,-0.2343,-0.2433,-0.2469,-0.2598,-0.2619,-0.2641,-0.2724,-0.273,-0.277,-0.2771,-0.2767,-0.2782,-0.2786,-0.2769,-0.2783,-0.2781,-0.2779,-0.2777,-0.2773,-0.277,-0.2768,0,0,0,0,0,-0.2257,-0.2332,-0.2344,-0.2371,-0.2519,-0.26,-0.2623,-0.27,-0.2727,-0.2757,-0.2772,-0.2771,-0.2772,-0.2784,-0.2788,-0.2771,-0.2781,-0.2779,-0.2777,-0.2774,-0.2771,-0.2768,0,0,0,0,0,0,-0.2266,-0.235,-0.2364,-0.2469,-0.2523,-0.2615,-0.2685,-0.2718,-0.2765,-0.2776,-0.2779,-0.2781,-0.2777,-0.278,-0.2792,-0.2761,-0.2769,-0.2768,-0.2765,-0.2762,-0.276,-0.2755,-0.2784,0,0,0,0,0,-0.2279,-0.2353,-0.241,-0.2505,-0.2527,-0.2604,-0.2661,-0.2698,-0.2745,-0.277,-0.2777,-0.278,-0.2772,-0.2774,-0.2768,-0.2773,-0.2748,-0.2757,-0.2754,-0.2752,-0.2749,-0.2702,-0.2695,-0.277,-0.277,-0.277,0,0,-0.232,-0.2377,-0.2426,-0.2511,-0.2569,-0.2596,-0.2637,-0.2725,-0.2735,-0.2759,-0.2777,-0.2779,-0.2771,-0.2759,-0.2757,-0.2762,-0.2714,-0.275,-0.2748,-0.2746,-0.2699,-0.2692,-0.2686,-0.2768,-0.2769,-0.2769,0,0,-0.2401,-0.2469,-0.2524,-0.2553,-0.2628,-0.2651,-0.2671,-0.2733,-0.2748,-0.2762,-0.2766,-0.2762,-0.2762,-0.2744,-0.2737,-0.2722,-0.2702,-0.2717,-0.2706,-0.2661,-0.2655,-0.2649,-0.2595,-0.2585,-0.2717,-0.2717,-0.2717,0,-0.2444,-0.2505,-0.2558,-0.2588,-0.2617,-0.2662,-0.2683,-0.2706,-0.2758,-0.2754,-0.2756,-0.2743,-0.2745,-0.272,-0.2711,-0.2715,-0.2688,-0.2722,-0.2658,-0.2652,-0.2646,-0.2593,-0.2581,-0.2716,-0.2716,-0.2716,-0.2716,0,-0.2513,-0.2566,-0.2606,-0.2633,-0.2664,-0.271,-0.2708,-0.2724,-0.2732,-0.2735,-0.2714,-0.2708,-0.2697,-0.2689,-0.2701,-0.266,-0.2652,-0.266,-0.2668,-0.2638,-0.2584,-0.2572,-0.2715,-0.2716,-0.2716,-0.2716,0,0,-0.2568,-0.2638,-0.2641,-0.2653,-0.2684,-0.2713,-0.2708,-0.2707,-0.271,-0.2701,-0.2683,-0.2662,-0.2665,-0.2656,-0.2659,-0.2626,-0.2564,-0.2633,-0.2631,-0.2584,-0.2455,-0.2426,-0.241,-0.2566,-0.2564,-0.2562,-0.243,0,-0.2592,-0.2649,-0.2663,-0.2696,-0.2715,-0.272,-0.2711,-0.2714,-0.2704,-0.269,-0.2659,-0.2645,-0.2647,-0.2649,-0.2612,-0.2595,-0.2534,-0.2598,-0.2488,-0.2484,-0.2465,-0.2396,-0.2192,-0.2055,-0.2418,-0.2416,-0.2415,0,-0.2603,-0.2648,-0.2674,-0.2713,-0.2717,-0.2714,-0.2705,-0.2707,-0.2684,-0.268,-0.2651,-0.2641,-0.2601,-0.2601,-0.251,-0.2555,-0.2496,-0.2463,-0.2457,-0.2424,-0.2432,-0.2145,-0.202,-0.2395,-0.2396,-0.2398,-0.2399,0,-0.2579,-0.2639,-0.2659,-0.2669,-0.271,-0.2697,-0.2702,-0.2692,-0.2692,-0.2666,-0.2668,-0.2615,-0.2588,-0.2519,-0.2461,-0.2484,-0.2349,-0.2368,-0.2264,-0.2261,-0.2062,-0.2045,-0.2257,-0.2257,-0.2257,-0.2258,-0.2258,0,-0.2577,-0.2589,-0.2644,-0.2654,-0.2663,-0.2684,-0.2673,-0.2679,-0.2676,-0.2672,-0.2657,-0.2636,-0.2566,-0.2495,-0.2438,-0.2314,-0.2317,-0.2237,-0.2217,-0.2054,-0.2039,-0.2325,-0.2334,-0.2253,-0.2254,-0.2255,-0.2256,0,-0.253,-0.2573,-0.2602,-0.2646,-0.265,-0.2647,-0.2662,-0.2663,-0.2671,-0.2663,-0.2657,-0.2629,-0.2541,-0.2458,-0.2336,-0.2273,-0.2171,-0.2113,-0.1928,-0.1889,-0.2115,-0.2126,-0.198,-0.1978,-0.1976,-0.1974,-0.1973,0,-0.2506,-0.2517,-0.2579,-0.259,-0.2597,-0.2603,-0.2607,-0.264,-0.2644,-0.2656,-0.2647,-0.2575,-0.2503,-0.2318,-0.2173,-0.2018,-0.2083,-0.1748,-0.1756,-0.2087,-0.2083,-0.2097,-0.211,-0.1471,-0.1466,-0.1462,-0.1458,0,-0.2445,-0.2465,-0.2492,-0.2533,-0.2541,-0.257,-0.2576,-0.2584,-0.2619,-0.256,-0.2527,-0.2476,-0.2347,-0.2082,-0.1893,-0.1785,-0.1771,-0.1658,-0.1998,-0.1609,-0.1606,-0.1604,-0.1633,-0.1419,-0.1423,-0.1426,-0.1428,-0.1429,-0.2371,-0.238,-0.2421,-0.2439,-0.2481,-0.2505,-0.2449,-0.2432,-0.2365,-0.223,-0.2331,-0.2149,-0.2055,-0.1684,-0.1546,-0.1426,-0.1555,-0.1423,-0.1435,-0.1453,-0.1454,-0.1452,-0.1233,-0.1236,-0.1238,-0.124,-0.1242,0,-0.2259,-0.2278,-0.2317,-0.2349,-0.2352,-0.2412,-0.2395,-0.223,-0.203,-0.2,-0.1865,-0.1592,-0.1387,-0.1353,-0.1117,-0.105,-0.1038,-0.0983,-0.0944,-0.098,-0.1014,-0.0995,-0.065,-0.0649,-0.0648,-0.0647,0,0,-0.2194,-0.2192,-0.2223,-0.2192,-0.2208,-0.211,-0.2054,-0.1762,-0.1636,-0.1386,-0.1287,-0.131,-0.1343,-0.1015,-0.0884,-0.0756,-0.0882,-0.0709,-0.117,-0.1164,-0.1198,-0.1234,-0.1242,0,0,0,0,0]},{"header":{"parameterUnit":"m.s-1","parameterCategory":2,"la1":30.2991,"la2":30.254,"lo1":-89.0895,"lo2":-89.0444,"dy":0.0017,"dx":0.0017,"nx":28,"ny":28,"refTime":"2023-08-03T21:00:00:Z","depth":"2","parameterNumber":3,"parameterNumberName":"V-component_of_CURRENTS"},"data":[0,0,0,0,0,0,0,0,0,0,0,0,0,0,0,0,0,0,0,0,0,0,0,0,0,0,0,0,0,0,0,0,0,0,0,0,0,0,0,0,0,0,0,0,0,0,0,0,0,0,0,0,0,0,0,0,0,0,0.0186,0.0188,0,0.0384,0.0386,0.0388,0.0523,0.0524,0.0525,0.0526,0.0735,0.0739,0.0744,0,0,0,0,0,0,0,0,0,0,0,0,0,0.0023,0.0025,0.0186,0.0188,0.0191,0.0384,0.0386,0.0389,0.0522,0.0524,0.0525,0.0526,0.0733,0.0739,0.0744,0,0,0,0,0,0,0,0,0,0,0,0,0,0.0143,0.0025,0.0185,0.0282,0.0293,0.0383,0.0386,0.039,0.0522,0.0524,0.0525,0.0527,0.0732,0.0738,0.0745,0.0755,0,0,0.0766,0.0769,0,0,0,0,0,0,0,0,0.0136,0.0149,0.0265,0.0275,0.0288,0.0432,0.0406,0.0513,0.0522,0.0433,0.0526,0.0528,0.0634,0.0649,0.0681,0.0764,0.0773,0.0766,0.0771,0.0774,0.0776,0,0,0,0,0,0,0,0.0127,0.0142,0.0263,0.0268,0.0282,0.035,0.0368,0.0427,0.0521,0.0441,0.0452,0.0476,0.064,0.0674,0.0687,0.0776,0.0766,0.0772,0.0777,0.0779,0.0918,0.0918,0,0,0,0,0,0,0.0099,0.0133,0.0257,0.0269,0.0216,0.0351,0.0371,0.0383,0.0521,0.0544,0.0474,0.0481,0.0661,0.0678,0.0694,0.0743,0.0774,0.078,0.0784,0.0918,0.0918,0.0917,0,0,0,0,0,0,0.0094,0.0107,0.0249,0.0208,0.0231,0.0351,0.0364,0.0386,0.0447,0.0546,0.0569,0.0516,0.0663,0.0685,0.0763,0.0751,0.0783,0.0789,0.0919,0.0918,0.0918,0.0821,0,0,0,0,0,0,0.0088,0.0104,0.0113,0.0205,0.0232,0.0308,0.0363,0.0388,0.0458,0.047,0.0589,0.0609,0.0666,0.0753,0.077,0.0761,0.0795,0.0919,0.0919,0.0918,0.0825,0.0817,0.0811,0,0,0,0,0,0.0082,0.0089,0.0112,0.0128,0.0236,0.0309,0.0329,0.042,0.0458,0.0481,0.0562,0.0607,0.076,0.0758,0.0779,0.0771,0.092,0.0919,0.0918,0.0828,0.0819,0.0811,0,0,0,0,0,0,0.0041,0.0106,0.0133,0.0165,0.0231,0.0332,0.037,0.0424,0.0507,0.0525,0.0614,0.0639,0.0693,0.0749,0.0745,0.0808,0.0842,0.0845,0.0767,0.0759,0.0752,0.0738,0.08,0,0,0,0,0,0.0027,0.0053,0.0121,0.0158,0.0178,0.0272,0.0318,0.0376,0.0457,0.0497,0.0569,0.0644,0.0699,0.0745,0.0798,0.0847,0.0887,0.0851,0.0844,0.0838,0.0839,0.0914,0.0914,0.0914,0.0914,0.0914,0,0,0.0029,0.0069,0.0089,0.0151,0.0209,0.0237,0.0305,0.0373,0.0404,0.0504,0.0565,0.0622,0.0704,0.0748,0.0777,0.0801,0.0847,0.0837,0.083,0.0836,0.0913,0.0914,0.0914,0.0914,0.0914,0.0914,0,0,0.0034,0.0068,0.0079,0.0116,0.019,0.0238,0.0253,0.0339,0.0384,0.0441,0.0511,0.0573,0.0656,0.0718,0.0758,0.075,0.0799,0.0753,0.0721,0.0793,0.0793,0.0795,0.0791,0.0793,0.076,0.076,0.0759,0,0.0036,0.0048,0.01,0.0111,0.0141,0.0227,0.0239,0.0291,0.0396,0.0426,0.0447,0.0577,0.0642,0.0714,0.0699,0.0735,0.0756,0.0744,0.0783,0.0786,0.0789,0.0786,0.0789,0.0755,0.0755,0.0756,0.0756,0,0.0032,0.0045,0.0057,0.0087,0.0124,0.0156,0.0212,0.0255,0.0305,0.0356,0.0426,0.0515,0.0597,0.0613,0.0652,0.0702,0.0698,0.0755,0.0801,0.0783,0.078,0.0785,0.0748,0.075,0.0751,0.0752,0,0,0.0025,0.0045,0.0049,0.0051,0.0108,0.0139,0.0173,0.0228,0.0263,0.0333,0.0382,0.0459,0.051,0.0558,0.0623,0.0681,0.0694,0.0713,0.0719,0.07,0.0792,0.0786,0.0791,0.0759,0.0761,0.0762,0.076,0,0.0008,-0.0007,0.0021,0.0031,0.0025,0.0094,0.012,0.0184,0.0241,0.0303,0.0394,0.0452,0.0489,0.0524,0.0589,0.0686,0.0713,0.0686,0.0821,0.0823,0.0816,0.0801,0.0728,0.0722,0.0766,0.0767,0.0767,0,-0.0019,-0.0025,-0.0049,-0.0016,-0.0009,0.0006,0.0067,0.0106,0.0202,0.0248,0.0327,0.0399,0.0488,0.0524,0.0662,0.064,0.0691,0.0755,0.0759,0.0799,0.083,0.0761,0.0731,0.0777,0.0776,0.0776,0.0775,0,-0.0078,-0.0066,-0.0094,-0.0087,-0.0047,-0.0036,-0.0003,0.0078,0.0114,0.0207,0.0248,0.0368,0.0432,0.0538,0.0642,0.0656,0.0781,0.0833,0.0862,0.086,0.085,0.0845,0.091,0.091,0.091,0.091,0.091,0,-0.0124,-0.0133,-0.0131,-0.0146,-0.0156,-0.0103,-0.0086,-0.003,0.0054,0.0095,0.0206,0.0267,0.0442,0.0536,0.0627,0.0746,0.0769,0.0845,0.0875,0.0807,0.0799,0.0907,0.0907,0.0909,0.091,0.091,0.091,0,-0.0185,-0.0186,-0.0211,-0.0198,-0.0194,-0.0207,-0.0156,-0.0134,-0.0049,0.0013,0.0035,0.0193,0.0306,0.0448,0.0618,0.0723,0.084,0.0863,0.0728,0.0743,0.0863,0.0857,0.0915,0.0915,0.0915,0.0915,0.0915,0,-0.0212,-0.0249,-0.0271,-0.0297,-0.0298,-0.0302,-0.0297,-0.021,-0.0179,-0.0037,-0.0011,0.0114,0.0196,0.0424,0.0628,0.0776,0.0787,0.0791,0.0834,0.0848,0.0871,0.0865,0.086,0.0748,0.0747,0.0746,0.0745,0,-0.027,-0.0293,-0.0324,-0.0395,-0.0415,-0.0423,-0.0406,-0.0404,-0.0292,-0.0272,-0.0199,-0.0124,0.0172,0.0339,0.0569,0.0663,0.0774,0.0777,0.0853,0.0768,0.0695,0.0716,0.0716,0.0735,0.0736,0.0737,0.0738,0.0738,-0.0307,-0.036,-0.0424,-0.0489,-0.0519,-0.0561,-0.0594,-0.0582,-0.0604,-0.0541,-0.0402,-0.0267,0.0013,0.0332,0.0497,0.0705,0.0753,0.0774,0.0775,0.0778,0.077,0.0704,0.0738,0.0739,0.074,0.074,0.0741,0,-0.0357,-0.0428,-0.0506,-0.0597,-0.0676,-0.0643,-0.067,-0.0703,-0.0795,-0.0665,-0.0621,-0.0386,-0.0147,0.0172,0.051,0.0698,0.0707,0.0681,0.0644,0.0652,0.066,0.0645,0.058,0.058,0.058,0.058,0,0,-0.0383,-0.0495,-0.056,-0.0731,-0.0784,-0.0865,-0.09,-0.094,-0.0868,-0.0867,-0.0727,-0.0503,-0.009,0.0063,0.0277,0.0453,0.0506,0.0458,0.0567,0.0504,0.0509,0.0691,0.0675,0,0,0,0,0]}],[{"header":{"parameterUnit":"m.s-1","parameterCategory":2,"la1":30.2991,"la2":30.254,"lo1":-89.0895,"lo2":-89.0444,"dy":0.0017,"dx":0.0017,"nx":28,"ny":28,"refTime":"2023-08-03T21:00:00:Z","depth":"4","parameterNumber":2,"parameterNumberName":"U-component_of_CURRENTS"},"data":[0,0,0,0,0,0,0,0,0,0,0,0,0,0,0,0,0,0,0,0,0,0,0,0,0,0,0,0,0,0,0,0,0,0,0,0,0,0,0,0,0,0,0,0,0,0,0,0,0,0,0,0,0,0,0,0,0,0,-0.126,-0.126,0,-0.1316,-0.1317,-0.1318,-0.1345,-0.1345,-0.1345,-0.1345,-0.1409,-0.1411,-0.1412,0,0,0,0,0,0,0,0,0,0,0,0,0,-0.1212,-0.1212,-0.126,-0.1261,-0.1261,-0.1316,-0.1317,-0.1318,-0.1345,-0.1345,-0.1345,-0.1345,-0.1408,-0.141,-0.1412,0,0,0,0,0,0,0,0,0,0,0,0,0,-0.1247,-0.1212,-0.126,-0.1281,-0.1284,-0.1316,-0.1317,-0.1318,-0.1345,-0.1345,-0.1345,-0.1345,-0.1408,-0.141,-0.1413,-0.143,0,0,-0.1421,-0.1422,0,0,0,0,0,0,0,0,-0.1245,-0.1249,-0.1277,-0.128,-0.1283,-0.1323,-0.1324,-0.1356,-0.1345,-0.1322,-0.1345,-0.1345,-0.1381,-0.1386,-0.1397,-0.1433,-0.1436,-0.1421,-0.1423,-0.1424,-0.1424,0,0,0,0,0,0,0,-0.1242,-0.1247,-0.1283,-0.1278,-0.1281,-0.13,-0.1305,-0.133,-0.1351,-0.1324,-0.1326,-0.1332,-0.1382,-0.1394,-0.1398,-0.1437,-0.1421,-0.1423,-0.1425,-0.1426,-0.1545,-0.1547,0,0,0,0,0,0,-0.1233,-0.1244,-0.1281,-0.1284,-0.1263,-0.1301,-0.1306,-0.1311,-0.1351,-0.1357,-0.1332,-0.1333,-0.139,-0.1395,-0.1401,-0.146,-0.1424,-0.1426,-0.1428,-0.1544,-0.1546,-0.1547,0,0,0,0,0,0,-0.1232,-0.1236,-0.1278,-0.1265,-0.1272,-0.1302,-0.1306,-0.1312,-0.1342,-0.1357,-0.1363,-0.1359,-0.139,-0.1397,-0.1437,-0.1461,-0.1427,-0.143,-0.1542,-0.1544,-0.1546,-0.1555,0,0,0,0,0,0,-0.123,-0.1235,-0.1246,-0.1265,-0.1272,-0.1306,-0.1307,-0.1313,-0.1344,-0.1347,-0.1382,-0.1386,-0.139,-0.1433,-0.144,-0.1464,-0.1432,-0.154,-0.1543,-0.1546,-0.1552,-0.1557,-0.1561,0,0,0,0,0,-0.1228,-0.124,-0.1246,-0.1251,-0.1283,-0.1307,-0.1313,-0.1334,-0.1346,-0.1361,-0.1386,-0.1386,-0.1457,-0.1437,-0.1444,-0.1469,-0.1538,-0.1542,-0.1545,-0.155,-0.1556,-0.1561,0,0,0,0,0,0,-0.1225,-0.1244,-0.1252,-0.1269,-0.129,-0.1311,-0.133,-0.1347,-0.138,-0.1389,-0.1403,-0.141,-0.1455,-0.1466,-0.1443,-0.1515,-0.15,-0.1505,-0.1501,-0.1507,-0.1511,-0.15,-0.1434,0,0,0,0,0,-0.1229,-0.1244,-0.1263,-0.1279,-0.1289,-0.1315,-0.1332,-0.1348,-0.1374,-0.139,-0.1415,-0.1446,-0.1474,-0.1493,-0.1519,-0.1557,-0.1556,-0.1582,-0.1586,-0.1589,-0.1588,-0.1613,-0.1618,-0.1559,-0.1559,-0.1559,0,0,-0.1235,-0.1245,-0.1256,-0.128,-0.1297,-0.1318,-0.1326,-0.1356,-0.1378,-0.1392,-0.1438,-0.1464,-0.1489,-0.1529,-0.1551,-0.1542,-0.1605,-0.1594,-0.1596,-0.1593,-0.1617,-0.1622,-0.1627,-0.1562,-0.1561,-0.1561,0,0,-0.1241,-0.126,-0.1271,-0.129,-0.1318,-0.1335,-0.1348,-0.1383,-0.1404,-0.1449,-0.1464,-0.1502,-0.1553,-0.1569,-0.1584,-0.1632,-0.1628,-0.1651,-0.1662,-0.1686,-0.1691,-0.1695,-0.1687,-0.169,-0.1652,-0.1652,-0.1652,0,-0.1247,-0.1259,-0.128,-0.1294,-0.131,-0.1344,-0.1361,-0.139,-0.1437,-0.1454,-0.1467,-0.1546,-0.1569,-0.1607,-0.1625,-0.1639,-0.1644,-0.1635,-0.1689,-0.1693,-0.1697,-0.1689,-0.1692,-0.1653,-0.1652,-0.1652,-0.1652,0,-0.1252,-0.1273,-0.1282,-0.1309,-0.1332,-0.1355,-0.1388,-0.1422,-0.1458,-0.1485,-0.1541,-0.1576,-0.1618,-0.1639,-0.1647,-0.1691,-0.1682,-0.1689,-0.1668,-0.1703,-0.1693,-0.1696,-0.1654,-0.1653,-0.1653,-0.1653,0,0,-0.1229,-0.1277,-0.1282,-0.1296,-0.1341,-0.1358,-0.1399,-0.1437,-0.1463,-0.1522,-0.1553,-0.1616,-0.164,-0.1659,-0.168,-0.1706,-0.1735,-0.1713,-0.1714,-0.169,-0.177,-0.1617,-0.1605,-0.1755,-0.1756,-0.1757,-0.1746,0,-0.1224,-0.1253,-0.1279,-0.1312,-0.1328,-0.1369,-0.1401,-0.1445,-0.1487,-0.1529,-0.1575,-0.1622,-0.1646,-0.1671,-0.1702,-0.1731,-0.1747,-0.1736,-0.1753,-0.1753,-0.16,-0.1605,-0.1761,-0.1748,-0.1749,-0.1749,-0.175,0,-0.1209,-0.1232,-0.1263,-0.1308,-0.1318,-0.135,-0.1399,-0.1431,-0.1493,-0.1526,-0.1579,-0.1619,-0.1672,-0.1687,-0.1746,-0.174,-0.1756,-0.1773,-0.1774,-0.1628,-0.1605,-0.1712,-0.1756,-0.1755,-0.1755,-0.1754,-0.1754,0,-0.1168,-0.1215,-0.1242,-0.1258,-0.1317,-0.1341,-0.1376,-0.1435,-0.1458,-0.1527,-0.1556,-0.1622,-0.1657,-0.1703,-0.1742,-0.1754,-0.1786,-0.1804,-0.1676,-0.1665,-0.1803,-0.1799,-0.1837,-0.1837,-0.1837,-0.1837,-0.1837,0,-0.1137,-0.1159,-0.123,-0.1243,-0.1268,-0.1321,-0.1352,-0.1394,-0.1451,-0.1471,-0.1554,-0.1573,-0.1669,-0.1699,-0.1734,-0.1694,-0.1779,-0.1664,-0.165,-0.1806,-0.1803,-0.1804,-0.18,-0.1836,-0.1836,-0.1837,-0.1837,0,-0.1082,-0.1134,-0.1161,-0.1229,-0.1249,-0.1267,-0.1329,-0.1347,-0.1416,-0.1442,-0.1467,-0.1545,-0.1571,-0.1632,-0.1688,-0.1657,-0.1656,-0.1623,-0.1758,-0.1754,-0.1521,-0.1519,-0.1473,-0.1468,-0.1463,-0.1459,-0.1456,0,-0.1054,-0.1065,-0.1136,-0.115,-0.1183,-0.1221,-0.1241,-0.1316,-0.1332,-0.1407,-0.1406,-0.1457,-0.1496,-0.1447,-0.1521,-0.1533,-0.1531,-0.1513,-0.1538,-0.1492,-0.1484,-0.1489,-0.1492,-0.1448,-0.1447,-0.1446,-0.1445,0,-0.099,-0.1028,-0.1054,-0.1079,-0.1108,-0.1125,-0.1164,-0.1167,-0.1241,-0.1319,-0.1312,-0.132,-0.1325,-0.1354,-0.1355,-0.1378,-0.1517,-0.1465,-0.1476,-0.1499,-0.1461,-0.1459,-0.1468,-0.1428,-0.1431,-0.1432,-0.1433,0,-0.0943,-0.0942,-0.0982,-0.0991,-0.1021,-0.1014,-0.105,-0.1067,-0.1092,-0.1188,-0.1175,-0.1235,-0.1301,-0.1269,-0.1281,-0.1268,-0.1267,-0.125,-0.1272,-0.1291,-0.1235,-0.1161,-0.1009,0,0,0,0,0,-0.0887,-0.0877,-0.0885,-0.0889,-0.0912,-0.0922,-0.0986,-0.1029,-0.1107,-0.1069,-0.112,-0.1122,-0.1114,-0.1148,-0.11,-0.1193,-0.127,-0.1132,-0.1262,-0.1338,-0.1357,-0.1308,0,0,0,0,0,0,-0.0848,-0.086,-0.0855,-0.0796,-0.0773,-0.0783,-0.0818,-0.0878,-0.087,-0.0961,-0.097,-0.1034,-0.1053,-0.1116,-0.1067,-0.1076,-0.1132,-0.1171,-0.1168,-0.1327,-0.1344,-0.136,-0.1315,0,0,0,0,0]},{"header":{"parameterUnit":"m.s-1","parameterCategory":2,"la1":30.2991,"la2":30.254,"lo1":-89.0895,"lo2":-89.0444,"dy":0.0017,"dx":0.0017,"nx":28,"ny":28,"refTime":"2023-08-03T21:00:00:Z","depth":"4","parameterNumber":3,"parameterNumberName":"V-component_of_CURRENTS"},"data":[0,0,0,0,0,0,0,0,0,0,0,0,0,0,0,0,0,0,0,0,0,0,0,0,0,0,0,0,0,0,0,0,0,0,0,0,0,0,0,0,0,0,0,0,0,0,0,0,0,0,0,0,0,0,0,0,0,0,-0.0135,-0.0135,0,-0.0113,-0.0112,-0.0112,-0.0081,-0.008,-0.008,-0.008,-0.0043,-0.0042,-0.0042,0,0,0,0,0,0,0,0,0,0,0,0,0,-0.0131,-0.0131,-0.0135,-0.0135,-0.0135,-0.0113,-0.0112,-0.0112,-0.0081,-0.008,-0.008,-0.0079,-0.0043,-0.0042,-0.0042,0,0,0,0,0,0,0,0,0,0,0,0,0,-0.0122,-0.0131,-0.0135,-0.0117,-0.0116,-0.0113,-0.0112,-0.0112,-0.0081,-0.008,-0.008,-0.0079,-0.0043,-0.0042,-0.0042,-0.005,0,0,-0.0039,-0.0039,0,0,0,0,0,0,0,0,-0.0123,-0.0122,-0.012,-0.0119,-0.0117,-0.01,-0.0097,-0.0091,-0.0081,-0.0093,-0.008,-0.0079,-0.0062,-0.0059,-0.0055,-0.0048,-0.0046,-0.0039,-0.0038,-0.0038,-0.0038,0,0,0,0,0,0,0,-0.0123,-0.0123,-0.0125,-0.012,-0.0118,-0.0103,-0.0101,-0.0096,-0.008,-0.0092,-0.009,-0.0089,-0.006,-0.0056,-0.0054,-0.0046,-0.0039,-0.0038,-0.0038,-0.0037,-0.0049,-0.0049,0,0,0,0,0,0,-0.013,-0.0124,-0.0126,-0.0125,-0.0119,-0.0104,-0.0102,-0.0105,-0.0081,-0.0077,-0.009,-0.0088,-0.0058,-0.0055,-0.0053,-0.0082,-0.0038,-0.0037,-0.0037,-0.0048,-0.0049,-0.005,0,0,0,0,0,0,-0.013,-0.0131,-0.0127,-0.0124,-0.0123,-0.0105,-0.0109,-0.0105,-0.0101,-0.0079,-0.0075,-0.0089,-0.0057,-0.0054,-0.0056,-0.008,-0.0037,-0.0036,-0.0047,-0.0048,-0.0049,-0.0127,0,0,0,0,0,0,-0.013,-0.0131,-0.014,-0.0125,-0.0123,-0.0134,-0.0109,-0.0105,-0.0102,-0.0099,-0.0078,-0.0073,-0.0057,-0.0058,-0.0055,-0.0078,-0.0035,-0.0046,-0.0047,-0.0049,-0.0124,-0.0131,-0.0137,0,0,0,0,0,-0.013,-0.0149,-0.0141,-0.0142,-0.0135,-0.0135,-0.0134,-0.0117,-0.0102,-0.0109,-0.0095,-0.0074,-0.0065,-0.0058,-0.0055,-0.0078,-0.0045,-0.0047,-0.0049,-0.0121,-0.013,-0.0137,0,0,0,0,0,0,-0.0155,-0.0147,-0.0138,-0.0154,-0.0148,-0.0131,-0.0137,-0.0122,-0.0116,-0.0113,-0.0086,-0.0082,-0.0092,-0.0073,-0.0065,-0.0084,-0.0051,-0.0052,-0.0107,-0.0115,-0.0122,-0.0141,-0.0035,0,0,0,0,0,-0.0165,-0.0175,-0.0162,-0.0176,-0.0174,-0.0155,-0.0154,-0.0143,-0.0132,-0.0128,-0.0115,-0.0101,-0.0098,-0.0097,-0.0089,-0.0101,-0.0075,-0.0112,-0.0119,-0.0125,-0.0138,-0.0121,-0.0128,-0.0056,-0.0056,-0.0056,0,0,-0.018,-0.0177,-0.0183,-0.0182,-0.0175,-0.0188,-0.0153,-0.0156,-0.017,-0.0126,-0.0144,-0.0125,-0.0106,-0.0121,-0.0124,-0.0108,-0.0129,-0.0127,-0.0133,-0.0143,-0.0124,-0.0131,-0.0137,-0.0057,-0.0057,-0.0056,0,0,-0.0215,-0.021,-0.0229,-0.0229,-0.0223,-0.0214,-0.0217,-0.0204,-0.0201,-0.0212,-0.0186,-0.0186,-0.0176,-0.0174,-0.017,-0.0209,-0.0164,-0.02,-0.0254,-0.0238,-0.0244,-0.0249,-0.0213,-0.0214,-0.0205,-0.0205,-0.0205,0,-0.0233,-0.0255,-0.0235,-0.0254,-0.0264,-0.023,-0.0257,-0.0252,-0.0243,-0.0254,-0.0228,-0.0228,-0.0207,-0.0234,-0.0244,-0.0227,-0.0199,-0.0226,-0.0248,-0.0252,-0.0256,-0.0218,-0.0218,-0.0209,-0.0209,-0.0208,-0.0208,0,-0.0277,-0.0298,-0.031,-0.0324,-0.0334,-0.0349,-0.0341,-0.0347,-0.0335,-0.0334,-0.0351,-0.0323,-0.0323,-0.0315,-0.0291,-0.0315,-0.0278,-0.0257,-0.0229,-0.0268,-0.0225,-0.0224,-0.0215,-0.0213,-0.0212,-0.0211,0,0,-0.0305,-0.0336,-0.0341,-0.0364,-0.0372,-0.0385,-0.0413,-0.0433,-0.0456,-0.0443,-0.0475,-0.0464,-0.0441,-0.0434,-0.0402,-0.0389,-0.0381,-0.0338,-0.0335,-0.0307,-0.0328,-0.0265,-0.0257,-0.036,-0.0361,-0.0361,-0.0283,0,-0.0345,-0.0399,-0.0404,-0.0461,-0.0488,-0.048,-0.0514,-0.0529,-0.0527,-0.0548,-0.0525,-0.0537,-0.0488,-0.0485,-0.0468,-0.0406,-0.0384,-0.0403,-0.0291,-0.0287,-0.0231,-0.0256,-0.0363,-0.0282,-0.0281,-0.0281,-0.0281,0,-0.0382,-0.0416,-0.0479,-0.0535,-0.0547,-0.0579,-0.0623,-0.0646,-0.0663,-0.0661,-0.0666,-0.064,-0.063,-0.0572,-0.0497,-0.0508,-0.0428,-0.0372,-0.0367,-0.0284,-0.0223,-0.0236,-0.0278,-0.0278,-0.0279,-0.0279,-0.0279,0,-0.0406,-0.0469,-0.0524,-0.0542,-0.0596,-0.0631,-0.0657,-0.0686,-0.0712,-0.0729,-0.0744,-0.0726,-0.0709,-0.0628,-0.0504,-0.0501,-0.04,-0.038,-0.0249,-0.0242,-0.0287,-0.0282,-0.0324,-0.0324,-0.0325,-0.0325,-0.0325,0,-0.0441,-0.0487,-0.0542,-0.0571,-0.0647,-0.0669,-0.0737,-0.0755,-0.0786,-0.0822,-0.0801,-0.0805,-0.0721,-0.065,-0.0533,-0.0382,-0.0418,-0.0264,-0.0225,-0.0318,-0.0319,-0.0285,-0.0281,-0.0322,-0.0322,-0.0323,-0.0323,0,-0.046,-0.0493,-0.0562,-0.0632,-0.0659,-0.071,-0.0782,-0.0825,-0.0844,-0.0884,-0.0891,-0.0868,-0.0766,-0.0655,-0.0513,-0.0414,-0.0278,-0.0209,-0.0309,-0.0275,-0.0124,-0.0125,-0.0075,-0.0072,-0.007,-0.0068,-0.0066,0,-0.0474,-0.0509,-0.0599,-0.0645,-0.0682,-0.0755,-0.0808,-0.0848,-0.0879,-0.0906,-0.092,-0.0859,-0.0815,-0.0573,-0.0453,-0.0236,-0.0194,-0.0131,-0.0144,-0.0135,-0.0102,-0.0107,-0.0111,-0.0063,-0.0062,-0.0061,-0.0061,0,-0.0501,-0.0532,-0.0587,-0.0675,-0.0744,-0.082,-0.0884,-0.0905,-0.094,-0.0965,-0.0918,-0.0818,-0.0701,-0.054,-0.0369,-0.0213,-0.0186,-0.0107,-0.0111,-0.0122,-0.0119,-0.009,-0.0097,-0.0053,-0.0054,-0.0055,-0.0055,0,-0.0516,-0.0559,-0.0626,-0.0703,-0.079,-0.0858,-0.0892,-0.0912,-0.0936,-0.0941,-0.0918,-0.0806,-0.0752,-0.0525,-0.0366,-0.0211,-0.0172,-0.0129,-0.0131,-0.0138,-0.0176,-0.0184,-0.0111,0,0,0,0,0,-0.0529,-0.0577,-0.065,-0.074,-0.0822,-0.087,-0.0936,-0.0955,-0.0976,-0.0933,-0.0918,-0.0794,-0.0575,-0.0498,-0.0326,-0.0327,-0.0155,-0.0122,-0.0108,-0.0009,-0.0018,-0.0047,0,0,0,0,0,0,-0.0544,-0.061,-0.0647,-0.0748,-0.0808,-0.0901,-0.094,-0.0957,-0.0916,-0.0912,-0.079,-0.0745,-0.0528,-0.0665,-0.0321,-0.028,-0.0245,-0.0027,-0.0023,-0.0004,-0.0012,-0.0019,-0.0052,0,0,0,0,0]}]]